Tracking 35055 objects as of 18-Aug-2026
HD Live streaming from Space Station
objects crossing your sky now

TIANHUI 1-04

Track TIANHUI 1-04 now!
10-day predictions


NORAD ID: 49049
Int'l Code: 2021-067A
Launch date: July 29, 2021
Source: People's Republic of China (PRC)
Launch site: Jiuquan Satellite Launch Center, China (JSC)
Your satellite tracking list
Your tracking list is empty




NASA's NSSDC Master Catalog

Two Line Element Set (TLE):
1 49049U 21067A   26230.13485713  .00003597  00000-0  15342-3 0  9999
2 49049  97.2716 296.3551 0001383  99.2828 260.8566 15.23547746281024
Source of the keplerian elements: AFSPC